Regional Weather Roundup
Issued by NWS

Home | Current Version | Previous Version | Graphics & Text | Print | Product List | Glossary On
Versions: 1 2 3 4 5 6 7 8 9 10 11 12 13 14 15 16 17 18 19 20 21 22 23 24 25 26 27 28 29 30 31 32 33 34 35 36 37 38 39 40 41 42 43 44 45 46 47 48 49 50
169
ASUS43 KDMX 230206
RWRIA

WEATHER ROUNDUP FOR IOWA
NATIONAL WEATHER SERVICE DES MOINES IA
900 PM CDT MON MAY 22 2017

NOTE: "FAIR" INDICATES FEW OR NO CLOUDS BELOW 12,000 FEET WITH NO
SIGNIFICANT WEATHER AND/OR OBSTRUCTIONS TO VISIBILITY.

* - THESE STATIONS ARE NOT NWS STATIONS...THUS NOT UNDER NWS
QUALITY CONTROL.  THEY ALSO DO NOT REPORT WEATHER SUCH
AS PRECIPITATION OR FOG.

IAZ001>003-012>014-020>022-031>034-043>046-230300-
   NORTHWEST IOWA

CITY           SKY/WX    TMP DP  RH WIND       PRES   REMARKS
CARROLL *      CLOUDY    63  52  67 NW6       29.86R
CHEROKEE *     CLEAR     56  49  77 NW13      29.87R
DENISON *      PTCLDY    59  48  67 NW6       29.89R
LE MARS *      PTCLDY    55  48  76 N12G21    29.91R
ORANGE CITY *  CLEAR     54  46  76 N8G18     29.90R
SHELDON *      CLEAR     52  46  82 N14         N/A
SIOUX CITY     MOCLDY    58  48  69 N16       29.90R
SPENCER        PTCLDY    56  51  84 N20       29.85R
STORM LAKE *   PTCLDY    59  48  67 NW15      29.86R
$$

IAZ055>058-069>071-079>083-090>094-230300-
   SOUTHWEST IOWA

CITY           SKY/WX    TMP DP  RH WIND       PRES   REMARKS
ATLANTIC *     CLOUDY    59  55  88 W8        29.87S
AUDUBON *      CLOUDY    57  54  88 CALM      29.88S
CLARINDA *     MOCLDY    61  55  82 SW10      29.89F
COUNCIL BLFS * CLOUDY    59  55  88 SW7       29.88S
CRESTON *      PTCLDY    59  52  77 SW6       29.88F
HARLAN  *      MOCLDY    59  57  94 NW5       29.91R
LAMONI         PTCLDY    56  51  84 S10       29.89R
RED OAK *      CLOUDY    61  55  82 W7        29.88R
SHENANDOAH *   CLOUDY    59  55  88 SW13      29.89F
$$

IAZ047>049-059>061-072>074-084-230300-
   CENTRAL IOWA

CITY           SKY/WX    TMP DP  RH WIND       PRES   REMARKS
AMES           CLOUDY    60  53  77 W16       29.85R
ANKENY *       RAIN      57  50  77 W10G28    29.88R
BOONE *        CLOUDY    59  55  88 W7        29.85S
DES MOINES     LGT RAIN  60  51  72 W14       29.87R
GRINNELL*      PTCLDY    62  53  73 SW12      29.86S
MARSHALLTOWN   RAIN      59  54  83 SW18      29.84R
NEWTON *       CLOUDY    63  54  72 SW12      29.84S
PELLA *        PTCLDY    60  53  76 SW8       29.87S
PERRY *        CLOUDY    59  55  85 SW12      29.86R
$$

IAZ004>006-015-016-023>025-035-036-230300-
   NORTH CENTRAL IOWA

CITY           SKY/WX    TMP DP  RH WIND       PRES   REMARKS
ALGONA *       CLEAR     55  54  94 CALM      29.84R
CLARION *      MOCLDY    55  55 100 NW6       29.85R
ESTHERVILLE    CLOUDY    54  53  97 N13       29.85R
FORT DODGE *   PTCLDY    57  52  82 CALM      29.85S
MASON CITY     CLOUDY    54  52  93 N8        29.83S
FOREST CITY *  CLOUDY    54  48  82 N7        29.81F
WEBSTER CITY * CLOUDY    59  54  82 W7        29.83R
IOWA FALLS *   CLOUDY    58  55  89 W6        29.85S
$$

IAZ007>011-017>019-026>030-037>042-050>054-066-230300-
   NORTHEAST IOWA

CITY           SKY/WX    TMP DP  RH WIND       PRES   REMARKS
CEDAR RAPIDS   CLOUDY    61  57  87 SW12      29.85R
CHARLES CITY * LGT RAIN  54  54 100 N9        29.81R
CLINTON *      CLOUDY    59  55  87 S13       29.88R
DECORAH *      MOCLDY    57  52  82 N5        29.79S
DUBUQUE        CLOUDY    59  55  87 S12       29.84R
MONTICELLO *   CLOUDY    61  57  88 S10       29.84R
OELWEIN *      PTCLDY    57  55  94 SE9       29.81R
WATERLOO       MOCLDY    62  50  64 W23G39    29.81R
$$

IAZ064-065-067-068-078-230300-
   EAST CENTRAL IOWA

CITY           SKY/WX    TMP DP  RH WIND       PRES   REMARKS
DAVENPORT      CLOUDY    60  54  80 S10       29.88S
IOWA CITY      CLOUDY    63  55  75 SW10      29.88R
MT. PLEASANT * CLOUDY    59  53  80 SW13      29.90S
MUSCATINE *    CLOUDY    63  55  77 SW13      29.88S
QUAD CITIES    CLOUDY    61  55  81 SW10      29.88R
$$

IAZ062-063-075>077-085>089-095>099-230300-
   SOUTHEAST IOWA

CITY           SKY/WX    TMP DP  RH WIND       PRES   REMARKS
BURLINGTON     CLOUDY    60  58  92 SW13      29.91S
FAIRFIELD *    CLOUDY    61  54  77 SW13G18   29.88S
FORT MADISON * CLOUDY    61  57  88 SW13G20   29.93S
KEOKUK *       CLOUDY    57  55  94 SW12      29.94R
OSKALOOSA *      N/A     59  54  83 SW12      29.88R
CENTERVILLE *    N/A     57  54  88 S9        29.91R
OTTUMWA        CLOUDY    60  55  83 SW10      29.88R
WASHINGTON *   CLOUDY    61  55  82 SW14      29.89R
$$

ABBREVIATIONS USED IN REMARKS
   TC - TEMPERATURES IN CELSIUS
  WCI - WIND CHILL INDEX
   HX - HEAT INDEX
  VSB - VISIBILITY
$$





USA.gov is the U.S. government's official web portal to all federal, state and local government web resources and services.